Вернуться в каталог

CZ-6A DEB

АктивенPO
NORAD 61126·DEBRIS·🇨🇳 China

Запущен Aug 6, 2024 с Taiyuan Satellite Launch Center

Loading…

Ближайшие Пролёты (ближайшие 24 часа)

TLE

СвежийSource: Space-Track

Эпоха: Sep 14, 2026, 00:06 UTC

1 61126U 24140PU  26257.00424252  .00005972  00000-0  33124-3 0  9997
2 61126  89.1429 269.0007 0190216 121.0954 240.9102 14.99357105112327

Отслеживайте CZ-6A DEB в реальном времени с AllMySat

Download on the App Store